Malatya, Turkey

12:16 AM +03 on October 19, 2017 (GMT +0300)
Erhac Air Base

Weather History for LTAT - June, 2013

Change the Weather History Date:

Wednesday, June 12, 2013

  Actual Average Record
Temperature  
Mean Temperature 70 °F -  
Max Temperature 89 °F 88 °F 96 °F (2012)
Min Temperature 51 °F 64 °F 46 °F (2016)
Cooling Degree Days 5    
Growing Degree Days 20 (Base 50)    
Moisture  
Dew Point 42 °F    
Average Humidity 36    
Maximum Humidity 82    
Minimum Humidity 15    
Precipitation  
Precipitation 0.00 in 0.02 in - ()
Sea Level Pressure  
Sea Level Pressure 29.78 in    
Wind  
Wind Speed 5 mph ()    
Max Wind Speed 10 mph    
Max Gust Speed -    
Visibility 6.2 miles    
Events      
Averages and records for this station are not official NWS values.
T = Trace of Precipitation, MM = Missing Value Source: Averaged Metar Reports

Daily Weather History Graph

Daily Weather History Graph

Search for Another Location

Airport or City:

Trip Planner

Search our weather history database for the weather conditions in past years. The results will help you decide how hot, cold, wet, or windy it might be!

Date:

Astronomy

Jun. 12, 2013 Rise Set
Actual Time 5:03 AM EEST 7:52 PM EEST
Civil Twilight 4:31 AM EEST 8:23 PM EEST
Nautical Twilight 3:51 AM EEST 9:03 PM EEST
Astronomical Twilight 3:06 AM EEST 9:48 PM EEST
Moon 8:20 AM EEST (6/12) 10:18 PM EEST (6/12)
Length of Visible Light 15h 52m
Length of Day
14h 48m
Waxing Crescent, 12% of the Moon is Illuminated
Jun 12
Waxing Crescent
Jun 16
First Quarter
Jun 23
Full
Jun 30
Last Quarter
Jul 8
New

Hourly Weather History & Observations

Time (EEST) Temp. Dew Point Humidity Pressure Visibility Wind Dir Wind Speed Gust Speed Precip Events Conditions
12:20 AM 66.2 °F 44.6 °F 46% 29.83 in - West 5.8 mph - N/A   Clear
12:50 AM 66.2 °F 46.4 °F 49% 29.83 in - SSW 3.5 mph - N/A   Clear
1:20 AM 62.6 °F 44.6 °F 52% 29.83 in - WSW 5.8 mph - N/A   Clear
1:50 AM 66.2 °F 44.6 °F 46% 29.83 in - West 3.5 mph - N/A   Clear
2:20 AM 64.4 °F 46.4 °F 52% 29.83 in - WNW 4.6 mph - N/A   Clear
2:50 AM 60.8 °F 44.6 °F 55% 29.83 in - SSW 4.6 mph - N/A   Clear
3:20 AM 60.8 °F 44.6 °F 55% 29.83 in - WSW 2.3 mph - N/A   Clear
3:50 AM 57.2 °F 44.6 °F 63% 29.83 in - South 4.6 mph - N/A   Clear
4:20 AM 55.4 °F 44.6 °F 67% 29.83 in - SSW 4.6 mph - N/A   Clear
4:50 AM 53.6 °F 44.6 °F 72% 29.83 in - South 3.5 mph - N/A   Clear
5:20 AM 51.8 °F 46.4 °F 82% 29.83 in - SSW 5.8 mph - N/A   Clear
5:50 AM 55.4 °F 46.4 °F 72% 29.83 in - SW 5.8 mph - N/A   Clear
6:20 AM 59.0 °F 48.2 °F 67% 29.83 in - SSW 3.5 mph - N/A   Clear
6:50 AM 64.4 °F 50.0 °F 59% 29.83 in - South 3.5 mph - N/A   Clear
7:20 AM 69.8 °F 48.2 °F 46% 29.83 in - SSE 4.6 mph - N/A   Clear
7:50 AM 73.4 °F 46.4 °F 38% 29.83 in - ESE 5.8 mph - N/A   Clear
8:20 AM 73.4 °F 48.2 °F 41% 29.83 in - ESE 5.8 mph - N/A   Clear
8:50 AM 77.0 °F 46.4 °F 34% 29.83 in - East 4.6 mph - N/A   Clear
9:20 AM 78.8 °F 44.6 °F 30% 29.83 in - ESE 4.6 mph - N/A   Clear
9:50 AM 80.6 °F 42.8 °F 26% 29.80 in - ESE 3.5 mph - N/A   Clear
10:20 AM 80.6 °F 44.6 °F 28% 29.80 in - East 5.8 mph - N/A   Clear
10:50 AM 82.4 °F 41.0 °F 23% 29.80 in 6.2 mi ENE 5.8 mph - N/A   Partly Cloudy
11:20 AM 84.2 °F 41.0 °F 22% 29.80 in 6.2 mi ENE 8.1 mph - N/A   Partly Cloudy
11:50 AM 84.2 °F 41.0 °F 22% 29.80 in 6.2 mi NE 8.1 mph - N/A   Partly Cloudy
12:20 PM 86.0 °F 41.0 °F 20% 29.80 in 6.2 mi East 9.2 mph - N/A   Partly Cloudy
12:50 PM 86.0 °F 41.0 °F 20% 29.80 in 6.2 mi SE 6.9 mph - N/A   Partly Cloudy
1:20 PM 86.0 °F 41.0 °F 20% 29.77 in 6.2 mi East 6.9 mph - N/A   Partly Cloudy
1:50 PM 87.8 °F 39.2 °F 18% 29.77 in 6.2 mi East 9.2 mph - N/A   Partly Cloudy
2:20 PM 87.8 °F 39.2 °F 18% 29.77 in 6.2 mi East 6.9 mph - N/A   Partly Cloudy
2:50 PM 87.8 °F 39.2 °F 18% 29.74 in 6.2 mi NE 6.9 mph - N/A   Partly Cloudy
3:20 PM 87.8 °F 37.4 °F 17% 29.74 in 6.2 mi East 5.8 mph - N/A   Partly Cloudy
3:50 PM 89.6 °F 37.4 °F 16% 29.74 in 6.2 mi SE 6.9 mph - N/A   Partly Cloudy
4:20 PM 87.8 °F 33.8 °F 15% 29.71 in 6.2 mi ESE 5.8 mph - N/A   Partly Cloudy
4:50 PM 87.8 °F 35.6 °F 16% 29.71 in 6.2 mi SE 6.9 mph - N/A   Partly Cloudy
5:20 PM 87.8 °F 37.4 °F 17% 29.71 in 6.2 mi East 8.1 mph - N/A   Partly Cloudy
5:50 PM 86.0 °F 37.4 °F 18% 29.71 in 6.2 mi East 9.2 mph - N/A   Partly Cloudy
6:20 PM 86.0 °F 39.2 °F 19% 29.71 in 6.2 mi East 8.1 mph - N/A   Partly Cloudy
6:50 PM 82.4 °F 39.2 °F 21% 29.71 in 6.2 mi ENE 6.9 mph - N/A   Partly Cloudy
7:20 PM 78.8 °F 41.0 °F 26% 29.71 in 6.2 mi East 4.6 mph - N/A   Partly Cloudy
7:50 PM 73.4 °F 42.8 °F 33% 29.71 in 6.2 mi Variable 2.3 mph - N/A   Partly Cloudy
8:20 PM 69.8 °F 44.6 °F 40% 29.71 in 6.2 mi West 4.6 mph - N/A   Partly Cloudy
8:50 PM 69.8 °F 42.8 °F 38% 29.74 in 6.2 mi WSW 8.1 mph - N/A   Partly Cloudy
9:20 PM 71.6 °F 41.0 °F 33% 29.74 in - West 6.9 mph - N/A   Clear
9:50 PM 75.2 °F 41.0 °F 29% 29.74 in - West 8.1 mph - N/A   Clear
10:20 PM 77.0 °F 41.0 °F 28% 29.74 in - WNW 10.4 mph - N/A   Clear
10:50 PM 75.2 °F 41.0 °F 29% 29.74 in - Variable 5.8 mph - N/A   Clear
11:20 PM 69.8 °F 39.2 °F 33% 29.74 in - South 6.9 mph - N/A   Clear
11:50 PM 68.0 °F 39.2 °F 35% 29.74 in - SSW 8.1 mph - N/A   Clear